User: anonymous   Login
Location: Lamoine Observatory
(44.4551°N, 68.3470°W)
Time: 02:17:44
(UTC-05:00)
Language:

Cosmos 1674 Rocket - Orbit

View from above orbital plane
View from above orbital plane
View from above satellite
View from above satellite

Ground track
Ground track

The orbit data is extracted from the following two-line orbital elements,

1 15945U 85069B   14331.85046771  .00000666  00000-0  77763-4 0  8285
2 15945 082.5278 285.9746 0021602 117.3980 272.9426 14.83495474582780
Epoch (UTC): 27 November 2014 20:24:40
Eccentricity: 0.0021602
inclination: 82.5278°
perigee height: 603 km
apogee height: 633 km
right ascension of ascending node: 285.9746°
argument of perigee: 117.3980°
revolutions per day: 14.83495474
mean anomaly at epoch: 272.9426°
orbit number at epoch: 58278

The dashed part of the orbit path shows where the satellite is in the earth's shadow,  

DLR